#timestamp,LO_Frequency,Hit,StdDev 
1616965215.4,286046998.6,N
1616965235.2,286046998.3,N
1616965255.1,286046998.4,N
1616965256.0,286046998.4,N
1616965275.8,286046998.6,N
1616965295.6,286046998.3,N
1616965315.5,286046998.4,N
1616965335.3,286046999.0,N
1616965355.2,286046999.0,N
1616965375.9,286046998.4,N
1616965395.7,286046998.8,N
1616965415.6,286046998.8,N
1616965435.4,286046999.0,N
1616965455.2,286046999.2,N
1616965475.1,286046999.0,N
1616965476.0,286046999.0,N
1616965495.8,286046999.5,N
1616965515.7,286046999.3,N
1616965535.5,286046999.2,N
1616965555.3,286046999.4,N
1616965575.2,286046999.4,N
1616965595.0,286046999.0,N
1616965595.9,286046999.0,N
1616965615.8,286046998.8,N
1616965635.6,286046998.7,N
1616965655.4,286046998.8,N
1616965675.3,286046998.5,N
1616965695.1,286047001.1,N
1616965715.8,286047001.1,N
1616965735.7,286046998.5,N
1616965755.5,286046998.1,N
1616965775.4,286046998.3,N
1616965795.2,286047000.8,N
1616965815.0,286046998.1,N
1616965815.9,286046998.1,N
1616965835.8,286046999.0,N
1616965855.6,286046998.6,N
1616965875.4,286046998.8,N
1616965895.3,286046998.8,N
1616965915.1,286046998.4,N
1616965935.9,286047000.7,N
1616965955.7,286046998.2,N
1616965975.5,286046999.0,N
1616965995.4,286046998.1,N
1616966015.2,286046998.5,N
1616966035.0,286047001.1,N
1616966036.0,286047001.1,N
1616966055.8,286046998.1,N
1616966075.6,286047001.2,N
1616966095.5,286046998.1,N
1616966115.3,286047000.8,N
1616966135.1,286047001.0,N
1616966155.9,286047001.0,N
1616966175.7,286047000.7,N
1616966195.6,286047000.8,N
1616966215.4,286047001.2,N
1616966235.2,286046998.1,N
1616966255.1,286046998.9,N
1616966256.0,286046998.9,N
1616966275.8,286046998.2,N
1616966295.6,286046998.1,N
1616966315.5,286046998.3,N
1616966335.3,286046998.5,N
1616966355.2,286046999.3,N
1616966375.9,286046999.2,N
1616966395.7,286046999.4,N
1616966415.6,286046998.7,N
1616966435.4,286046998.6,N
1616966455.2,286046998.6,N
1616966475.1,286046999.4,N
1616966476.0,286046999.4,N
1616966495.8,286046998.7,N
1616966515.7,286046998.7,N
1616966535.5,286046999.0,N
1616966555.3,286046998.4,N
1616966575.2,286046998.6,N
1616966595.0,286046998.6,N
1616966595.9,286046998.6,N
1616966615.8,286046999.5,N
1616966635.6,286046999.0,N
1616966655.4,286046999.0,N
1616966675.3,286046999.4,N
1616966695.1,286046998.7,N
1616966715.8,286046998.3,N
1616966735.7,286046998.3,N
1616966755.5,286047001.2,N
1616966775.4,286047001.2,N
1616966795.2,286046998.2,N
1616966815.0,286046998.5,N
1616966815.9,286046998.5,N
1616966835.8,286046998.1,N
1616966855.6,286046998.2,N
1616966875.4,286046998.3,N
1616966895.3,286046998.4,N
1616966915.1,286046998.1,N
1616966935.9,286047001.2,N
1616966955.7,286047001.2,N
1616966975.5,286046998.4,N
1616966995.4,286046998.5,N
1616967015.2,286046998.7,N
1616967035.0,286046999.4,N
1616967036.0,286046999.4,N
1616967055.8,286046999.2,N
1616967075.6,286046996.8,Y
1616967095.5,286046998.1,P
1616967115.3,286046998.1,P
1616967135.1,286046998.1,P
1616967155.9,286046998.6,Y
1616967175.7,286047002.7,P
1616967195.6,286047002.7,N
1616967215.4,286047002.4,N
1616967235.2,286047002.4,N
1616967255.1,286047002.3,N
1616967256.0,286047002.3,N
1616967275.8,286047002.8,N
1616967295.6,286047001.5,N
1616967315.5,286047001.5,N
1616967335.3,286047001.8,N
1616967355.2,286047001.9,N
1616967375.9,286047001.6,N
1616967395.7,286047001.6,N
1616967415.6,286047001.6,N
1616967435.4,286047001.3,N
1616967455.3,286047001.3,N
1616967475.1,286047004.4,Y
1616967476.0,286047004.4,P
1616967495.8,286047000.2,N
1616967515.7,286046999.9,N
1616967535.5,286047000.5,N
1616967555.4,286047001.0,N
1616967575.2,286047000.5,N
1616967595.0,286047000.3,N
1616967595.9,286047000.3,N
1616967615.8,286047000.4,N
1616967635.6,286046999.7,N
1616967655.4,286047000.0,N
1616967675.3,286047000.4,N
1616967695.1,286047001.0,N
1616967715.9,286047001.1,N
1616967735.7,286047000.3,N
1616967755.5,286047000.0,N
1616967775.4,286047001.0,N
1616967795.2,286047001.0,N
1616967815.1,286047000.7,N
1616967816.0,286047000.7,N
1616967835.8,286046999.7,N
1616967855.6,286047000.4,N
1616967875.5,286047000.1,N
1616967895.3,286047000.5,N
1616967915.1,286047001.0,N
1616967935.9,286047000.8,N
1616967955.7,286046998.2,N
1616967975.6,286046998.1,N
1616967995.4,286046998.4,N
1616968015.2,286046998.6,N
1616968035.1,286046998.6,N
1616968036.0,286046998.6,N
1616968055.8,286046998.1,N
1616968075.7,286047000.7,N
1616968095.5,286047000.6,N
1616968115.3,286047001.1,N
1616968135.2,286047000.9,N
1616968155.9,286047000.9,N
1616968175.7,286047000.9,N
1616968195.6,286047000.4,N
1616968215.4,286046998.1,N
1616968235.3,286047000.7,N
1616968255.1,286047000.7,N
1616968256.0,286047000.7,N
1616968275.8,286047000.7,N
1616968295.7,286047000.7,N
1616968315.5,286047000.4,N
1616968335.3,286047001.0,N
1616968355.2,286047001.1,N
1616968375.0,286047001.1,N
1616968375.9,286047001.1,N
1616968395.8,286047000.6,N
1616968415.6,286047000.4,N
1616968435.4,286047000.3,N
1616968455.3,286047000.0,N
1616968475.1,286046999.8,N
1616968495.9,286047000.1,N
1616968515.7,286046999.8,N
1616968535.5,286047000.2,N
1616968555.4,286046999.9,N
1616968575.2,286047000.5,N
1616968595.0,286047000.7,N
1616968595.9,286047000.7,N
1616968615.8,286047001.0,N
1616968635.6,286047000.4,N
1616968655.5,286047000.0,N
1616968675.3,286047000.3,N
1616968695.1,286047000.2,N
1616968715.9,286047000.2,N
1616968735.7,286047000.0,N
1616968755.5,286047000.5,N
1616968775.4,286047000.5,N
1616968795.2,286047000.4,N
